NOAA NWS Hourly Roundups by Site

Regional Weather Roundup for Norman, OK

To Select Another Site Choose from List

Select Site:  

000
ASUS44 KOUN 130010
RWROK

WEATHER ROUNDUP FOR OKLAHOMA
NATIONAL WEATHER SERVICE NORMAN OK
700 PM CDT FRI APR 12 2024

NOTE: "FAIR" INDICATES FEW OR NO CLOUDS BELOW 12,000 FEET WITH NO
      SIGNIFICANT WEATHER AND/OR OBSTRUCTIONS TO VISIBILITY.

OKZ001>007-009>012-014-015-017-130100-
NORTHWEST OKLAHOMA AND THE PANHANDLE

CITY           SKY/WX    TMP DP  RH WIND       PRES   REMARKS
GAGE           FAIR      80  44  27 S20G26    30.02F
6HR MIN TEMP:  75; 6HR MAX TEMP:  83;

GUYMON         FAIR      82  36  19 S16G25    29.96F
ENID/WOODRING  SUNNY     77  50  38 S17G25    30.05F
$$

OKZ016-021>023-033>039-044-045-130100-
SOUTHWEST OKLAHOMA

CITY           SKY/WX    TMP DP  RH WIND       PRES   REMARKS
LAWTON/REGL    FAIR      76  54  46 S10       30.08S
6HR MIN TEMP:  75; 6HR MAX TEMP:  79;

LAWTON/FT SILL FAIR      77  51  39 S13G21    30.05S
FREDERICK      FAIR      76  54  46 S13       30.04F
CLINTON        FAIR      74  51  44 S16G28    30.07R
HOBART         FAIR      76  53  44 S15       30.07F
ALTUS AFB      FAIR      78  50  37 S16       30.04S
$$

OKZ018>020-024>031-130100-
CENTRAL OKLAHOMA

CITY           SKY/WX    TMP DP  RH WIND       PRES   REMARKS
OKLAHOMA CITY  FAIR      74  49  41 S17       30.08F
6HR MIN TEMP:  73; 6HR MAX TEMP:  78;

OKC/WILEY POST FAIR      75  50  41 S14       30.07F
OKC/TINKER AFB FAIR      77  45  31 SW21      30.04F
STILLWATER     FAIR      80  45  28 S13G20    30.06F
GUTHRIE        FAIR      79  46  31 S13G21    30.05F
$$

OKZ008-013-054>072-130100-
NORTHEAST OKLAHOMA

CITY           SKY/WX    TMP DP  RH WIND       PRES   REMARKS
TULSA          FAIR      71  38  29 SE10      30.11F
6HR MIN TEMP:  67; 6HR MAX TEMP:  75;

TULSA/JONES    FAIR      72  36  26 SE8       30.10F
PONCA CITY     FAIR      76  40  27 SE15      30.06F
BARTLESVILLE   FAIR      71  38  29 SE7       30.12F
MUSKOGEE       FAIR      73  39  29 SE6       30.14F
$$

OKZ032-040>043-046>053-073>077-130100-
SOUTH CENTRAL/SOUTHEAST OKLAHOMA

CITY           SKY/WX    TMP DP  RH WIND       PRES   REMARKS
ARDMORE/DWNTWN FAIR      75  49  38 S10       30.13S
MCALESTER      FAIR      76  44  32 S8        30.13S
$$



 

View Past Reports for Norman, OK.

Products Courtesy of NOAA-NWS
NWS Information Parsing Script by Ken True at Saratoga Weather - Script by SE Lincoln Weather.